Tracking 18980 objects as of 17-Feb-2018
HD Live streaming from Space Station
objects crossing your sky now

COSMOS 2178 (GLONASS)

Track COSMOS 2178 (GLONASS) now!
COSMOS 2178 (GLONASS) is classified as:


NORAD ID: 21854
Int'l Code: 1992-005B
Perigee: 19,060.9 km
Apogee: 19,212.5 km
Inclination: 64.0 °
Period: 675.7 minutes
Semi major axis: 25507 km
RCS: 3.102 m2 (large)
Launch date: January 29, 1992
Source: Commonwealth of Independent States (former USSR) (CIS)
Launch site: TYURATAM MISSILE AND SPACE COMPLEX (TTMTR)
SV:
aabbcc
Your satellite tracking list
Your tracking list is empty




NASA's NSSDC Master Catalog

Two Line Element Set (TLE):
1 21854U 92005B   18047.41958124 +.00000020 +00000-0 +00000-0 0  9992
2 21854 064.0423 174.8285 0029734 018.8484 305.8497 02.13106155202682
Source of the keplerian elements: AFSPC